Tracking 19246 objects as of 20-Aug-2018
HD Live streaming from Space Station
objects crossing your sky now

ELEKTRON 3

Track ELEKTRON 3 now!
10-day predictions
ELEKTRON 3 is classified as:


NORAD ID: 829
Int'l Code: 1964-038A
Perigee: 417.3 km
Apogee: 6,169.7 km
Inclination: 60.8 °
Period: 157.6 minutes
Semi major axis: 9664 km
RCS: 2.8255 m2 (large)
Launch date: July 10, 1964
Source: Commonwealth of Independent States (former USSR) (CIS)
Launch site: TYURATAM MISSILE AND SPACE COMPLEX (TTMTR)
aabbcc
Your satellite tracking list
Your tracking list is empty




NASA's NSSDC Master Catalog

Two Line Element Set (TLE):
1   829U 64038A   18231.56342615 +.00000146 +00000-0 +56073-4 0  9993
2   829 060.8196 164.8805 2976039 310.3434 027.2510 09.13758125753538
Source of the keplerian elements: AFSPC